Погода в Симферополе

Погода в Симферополе : погода сейчас, прогноз погоды и архив. Всё, что Вы хотите узнать о погоде в Симферополе!

Хотите узнать прогноз погоды в Симферополе? Тогда Вам сюда: Погода в Симферополе

Поиск расширенной информации на нашем сайте:

Полезная информация:

Другие новости

Новости СМИ2

Главная страница сайта

Новости сайта

03.07.2017

Напоминаем, что на нашем специализированном сайте Метеоцентр.Азия вы можете получить высокодетализированные автоматические прогнозы погоды по пунктам России, СНГ и мира в авиационном формате (включающие направление и скорость ветра, видимость, явления погоды, количество и форму облачности, нижнюю и верхнюю границу облачности).

Рекомендуем:

Погода в Симферополе - сегодня

Время (UTC), дата Ветер
(°,м/с) 
Видим.   Явления Облачность Т
(°С)
Тd
(°С)
f(%) Тe
(°С)
Pmin
(гПа)
dP
(гПа)
Po
(мм)
O2
(г/м3)
Тmin Tmax R s Состояние
почвы
00 16.07.19 140 (ЮВ) 10 км    10/0 средняя, верхняя 
[Ac trans|Ci sp]
+17 +14.6 86 +25  1007.1  -0.4  740  277           
03 16.07.19 160 (Ю) 10 км    8/0 средняя, верхняя 
[Ac trans|Ci fib]
+16.5 +14.7 89 +26  1007.2  0.1  740  278  +16.3         
06 16.07.19 220 (ЮЗ) 10 км    4/0 средняя, верхняя 
[Ac trans|Ci fib]
+22.5 +15.6 65 +33  1007.2  0.4  740  272  +16         
09 16.07.19 270 (З) 10 км    4/3 600 м кучево-дожд., верхняя 
[Cb cap|Ci fib]
+25.2 +13.7 49 +32  1007.3  0.3  740  270           
12 16.07.19 270 (З) 5{10}  10 км  гроза без осадков  6/6 1500 м кучево-дожд. 
[Cb cap]
+26.8 +13.5 44 +33  1007.1  -0.1  740  269           
15 16.07.19 260 (З) 7-10  10 км  гроза без осадков  3/3 1000 м кучево-дожд. 
[Cb cap]
+25.4 +14.2 50 +33  1007.8  0.6  740  270           
18 16.07.19 210 (ЮЗ) 10 км  {гроза}  8/0 верхняя 
[Ci fib]
+19.6 +14.6 73 +28  1009.2  741  276    +28       
21 16.07.19 150 (ЮВ) 10 км    3/0 верхняя 
[Ci fib]
+17.2 +14.7 85 +26  1009.7  0.3  741  278           
00 17.07.19 150 (ЮВ) 10 км    3/0 верхняя 
[Ci fib]
+15.9 +13.7 87 +23  1009.3  -0.5  741  279           
03 17.07.19 130 (ЮВ) 10 км    10/0 верхняя 
[Ci fib]
+16.1 +13.8 86 +23  1009.1  -0.2  741  279  +15.3         
06 17.07.19 040 (СВ) 10 км    9/0 верхняя 
[Ci]
+22.7 +14 58 +30  1008.5  -0.1  741  273  +15.3         
09 17.07.19 230 (ЮЗ) 10 км    5/3 1000 м кучево-дожд., верхняя 
[Cb calv|Ci fib]
+25.9 +10.1 37 +27  1007.7  -0.6  740  271           
12 17.07.19 290 (З) 6{11}  10 км    4/4 1500 м кучево-дожд. 
[Cb calv]
+27.6 +13.2 41 +34  1006.7  -0.8  740  268           
15 17.07.19 020 (С) 5{10}  10 км    5/1 1000 м кучево-дожд., средняя 
[Cb calv|Ac trans]
+25.5 +12 43 +30  1006.6  -0.3  740  270           
18 17.07.19 110 (В) 10 км    4/1 1000 м кучево-дожд., средняя 
[Cb calv|Ac trans]
+21.9 +15.7 68 +32  1007.7  0.9  740  273    +28.9       
21 17.07.19 170 (Ю) 10 км    ясно 
+18.5 +16.3 87 +30  1008.6  0.6  741  276           
00 18.07.19 120 (ЮВ) 10 км    3/0 средняя 
[Ac trans]
+17.9 +15 83 +28  1008.3  -0.3  740  277           
03 18.07.19 120 (ЮВ) 3{10}  10 км    ясно 
+17 +14.5 85 +25  1009  0.6  741  278  +15.8         
06 18.07.19 040 (СВ) 10 км    ясно 
+23.6 +14 55 +31  1009.1  0.5  741  272  +15.8         
09 18.07.19 030 (СВ) 10 км    3/3 1500 м 
[Cu med, cong]
+28.1 +11.6 36 +32  1008.9  0.1  741  269           
12 18.07.19 240 (ЮЗ) 10 км    9/9 1500 м кучево-дожд. 
[Cb calv]
+26 +13.5 46 +32  1009.5  0.5  742  270           
15 18.07.19 230 (ЮЗ) 10 км    9/4 1200 м кучево-дожд., средняя 
[Cb calv|Ac trans]
+25.9 +12.7 44 +31  1010  0.5  742  271           
18 18.07.19 330 (СЗ) 4{10}  10 км    3/0 верхняя 
[Ci fib]
+22.2 +10.7 48 +24  1012.4  744  275    +29.2       
21 18.07.19 190 (Ю) 10 км    5/0 средняя 
[Ac trans]
+19.6 +11.1 58 +24  1014  1.4  745  278           
00 19.07.19 070 (В) 10 км    ясно 
+17.4 +12.3 72 +23  1014.6  0.5  745  280           
Время (UTC), дата Ветер
(°,м/с) 
Видим.   Явления Облачность Т
(°С)
Тd
(°С)
f(%) Тe
(°С)
Pmin
(гПа)
dP
(гПа)
Po
(мм)
O2
(г/м3)
Тmin Tmax R s Состояние
почвы

Для получения пояснительной информации подведите курсор к названию столбца.

ПОГОДА в Симферополе - архив

Всё, что Вы хотите узнать о погоде в Симферополе - удобно и подробно!

Выберите нужную дату (начиная с 1 января 2018* года) и нажмите кнопку "Найти".
Будут отображены архивные сводки погоды по пункту Симферополь, начиная с указанной даты.


Отображать данные в формате CSV (для использования в таблицах Excel)


Внимание! Наш архив погоды предназначен исключительно для личного некоммерческого использования в познавательных целях. Если Вам необходимы официальные справки о состоянии погоды (для производственных, юридических, коммерческих и т.п. целей), обращайтесь в органы Росгидромета.

*Примечание: данная дата относится к архиву по метеостанциям СССР (Россия, СНГ, Балтия).
Архив по метеостанциям Зарубежной Европы и Азии (кроме Китая) хранится 10 дней, по другим регионам земного шара (Китай, Африка, Америка, Австралия, Океания) - 1 день.

Симферополь - район местоположения метеостанции


Название, широта, долгота, высота метеостанции:
Симферополь 44.7°ш. 34.1°д. 181 м над ур. моря [Российская Федерация]

Дополнительная информация

В oтличие oт бoльшинства пoгoдных сайтoв мы публикуем пoдрoбную метеoинфoрмацию в детальнoм прoфессиoнальнoм фoрмате.

Характеристики температуры и влажнoсти вoздуха измеряются на высoте 2 м в тени вдали oт зданий и деревьев.
Скoрoсть ветра измеряется на высoте 10 м (на урoвне рoста челoвека скoрoсть ветра ниже в 1.5-2 раза). Если метеoстанция нахoдится в гoрoде или в лесу, тo скoрoсть ветра занижена на 2-4 м/с пo сравнению с oткрытым местoм. Скoрoсть ветра над акватoриями крупных рек и oзёр, а также на вершинах хoлмoв на 2-5 м/с выше, чем в oбычных услoвиях.
Атмoсфернoе давление в разных тoчках местнoсти мoжет значительнo oтличаться oт давления на метеoстанции, в зависимoсти oт услoвий рельефа (при пoдъёме на 10 м давление пoнижается примернo на 1 мм рт.ст.).